Istanbul, Turkey

10:47 AM +03 on May 27, 2017 (GMT +0300)
Ataturk

Weather History for LTBA - February, 2013

Change the Weather History Date:

Friday, February 1, 2013

  Actual Average Record
Temperature  
Mean Temperature 42 °F -  
Max Temperature 50 °F 47 °F 65 °F (2015)
Min Temperature 34 °F 37 °F 26 °F (2012)
Degree Days  
Heating Degree Days 23    
Moisture  
Dew Point 37 °F    
Average Humidity 73    
Maximum Humidity 87    
Minimum Humidity 55    
Precipitation  
Precipitation 0.00 in - - ()
Sea Level Pressure  
Sea Level Pressure 29.96 in    
Wind  
Wind Speed 9 mph ()    
Max Wind Speed 17 mph    
Max Gust Speed -    
Visibility 6.0 miles    
Events      
Averages and records for this station are not official NWS values.
T = Trace of Precipitation, MM = Missing Value Source: Averaged Metar Reports

Daily Weather History Graph

Daily Weather History Graph

Search for Another Location

Airport or City:

Trip Planner

Search our weather history database for the weather conditions in past years. The results will help you decide how hot, cold, wet, or windy it might be!

Date:

Astronomy

Feb. 01, 2013 Rise Set
Actual Time 7:15 AM EET 5:21 PM EET
Civil Twilight 6:46 AM EET 5:50 PM EET
Nautical Twilight 6:13 AM EET 6:23 PM EET
Astronomical Twilight 5:41 AM EET 6:56 PM EET
Moon 11:10 PM EET (2/1) 9:34 AM EET (2/1)
Length of Visible Light 11h 04m
Length of Day
10h 06m
Waning Gibbous, 73% of the Moon is Illuminated
Feb 1
Waning Gibbous
Feb 3
Last Quarter
Feb 10
New
Feb 17
First Quarter
Feb 25
Full

Hourly Weather History & Observations

Time (EET) Temp. Windchill Dew Point Humidity Pressure Visibility Wind Dir Wind Speed Gust Speed Precip Events Conditions
12:20 AM 42.8 °F 36.6 °F 39.2 °F 87% 29.95 in 5.0 mi WNW 11.5 mph - N/A   Mostly Cloudy
12:50 AM 41.0 °F 33.5 °F 37.4 °F 87% 29.95 in 5.0 mi WNW 13.8 mph - N/A   Mostly Cloudy
1:20 AM 41.0 °F 34.3 °F 37.4 °F 87% 29.98 in 5.0 mi WNW 11.5 mph - N/A   Mostly Cloudy
1:50 AM 41.0 °F 35.2 °F 35.6 °F 81% 29.98 in 5.0 mi WNW 9.2 mph - N/A   Mostly Cloudy
2:00 AM 41 °F - 35 °F 73% 30.00 in 5 mi WNW 9.2 mph - -   Mist
2:20 AM 41.0 °F 35.2 °F 33.8 °F 76% 29.98 in 6.2 mi WNW 9.2 mph - N/A   Mostly Cloudy
2:50 AM 39.2 °F 35.0 °F 33.8 °F 81% 29.98 in 6.2 mi WNW 5.8 mph - N/A   Scattered Clouds
3:20 AM 39.2 °F 35.9 °F 33.8 °F 81% 29.98 in 6.2 mi West 4.6 mph - N/A   Scattered Clouds
3:50 AM 37.4 °F - 32.0 °F 81% 29.98 in - Variable 2.3 mph - N/A   Clear
4:20 AM 37.4 °F - 32.0 °F 81% 29.98 in - NNW 2.3 mph - N/A   Clear
4:50 AM 35.6 °F - 32.0 °F 87% 30.01 in - NNW 1.2 mph - N/A   Clear
5:20 AM 35.6 °F - 32.0 °F 87% 30.01 in - Variable 1.2 mph - N/A   Clear
5:50 AM 35.6 °F - 30.2 °F 81% 30.01 in - Variable 1.2 mph - N/A   Clear
6:20 AM 37.4 °F - 32.0 °F 81% 30.01 in - Variable 1.2 mph - N/A   Clear
6:50 AM 35.6 °F - 32.0 °F 87% 30.01 in - Variable 1.2 mph - N/A   Clear
7:20 AM 41.0 °F 38.0 °F 33.8 °F 76% 30.01 in - SW 4.6 mph - N/A   Clear
7:50 AM 41.0 °F 36.4 °F 33.8 °F 76% 30.01 in - WSW 6.9 mph - N/A   Clear
8:00 AM 41 °F - 35 °F 73% 30.02 in 6 mi WSW 6.9 mph - -  
8:20 AM 42.8 °F 38.0 °F 35.6 °F 76% 30.01 in - SW 8.1 mph - N/A   Clear
8:50 AM 44.6 °F 39.7 °F 35.6 °F 71% 30.01 in - SW 9.2 mph - N/A   Clear
9:20 AM 44.6 °F 40.7 °F 39.2 °F 81% 30.04 in - WSW 6.9 mph - N/A   Clear
9:50 AM 46.4 °F 41.9 °F 39.2 °F 76% 30.01 in - WSW 9.2 mph - N/A   Clear
10:20 AM 46.4 °F 41.9 °F 39.2 °F 76% 30.01 in - SW 9.2 mph - N/A   Clear
10:50 AM 46.4 °F 41.1 °F 39.2 °F 76% 30.01 in - SW 11.5 mph - N/A   Clear
11:20 AM 48.2 °F - 39.2 °F 71% 30.01 in 6.2 mi SSW 11.5 mph - N/A   Scattered Clouds
11:50 AM 48.2 °F - 39.2 °F 71% 29.98 in 6.2 mi SW 13.8 mph - N/A   Scattered Clouds
12:20 PM 48.2 °F - 37.4 °F 66% 29.98 in 6.2 mi SSW 11.5 mph - N/A   Scattered Clouds
12:50 PM 48.2 °F - 35.6 °F 62% 29.98 in 6.2 mi SW 12.7 mph - N/A   Scattered Clouds
1:20 PM 48.2 °F - 37.4 °F 66% 29.95 in 6.2 mi SSW 13.8 mph - N/A   Scattered Clouds
1:50 PM 48.2 °F - 37.4 °F 66% 29.95 in 6.2 mi SW 13.8 mph - N/A   Scattered Clouds
2:00 PM 48 °F - 38 °F 59% 29.98 in 6 mi SW 13.8 mph - -   Partly Cloudy
2:20 PM 48.2 °F - 39.2 °F 71% 29.95 in 6.2 mi SW 11.5 mph - N/A   Scattered Clouds
2:50 PM 48.2 °F - 37.4 °F 66% 29.95 in 6.2 mi SW 10.4 mph - N/A   Scattered Clouds
3:20 PM 48.2 °F - 37.4 °F 66% 29.95 in 6.2 mi SSW 8.1 mph - N/A   Scattered Clouds
3:50 PM 48.2 °F - 37.4 °F 66% 29.95 in 6.2 mi SSW 11.5 mph - N/A   Scattered Clouds
4:20 PM 48.2 °F - 35.6 °F 62% 29.92 in 6.2 mi SW 16.1 mph - N/A   Scattered Clouds
4:50 PM 48.2 °F - 35.6 °F 62% 29.92 in 6.2 mi SSW 12.7 mph - N/A   Scattered Clouds
5:20 PM 48.2 °F - 35.6 °F 62% 29.92 in 6.2 mi SSW 12.7 mph - N/A   Scattered Clouds
5:50 PM 48.2 °F - 37.4 °F 66% 29.92 in 6.2 mi SW 11.5 mph - N/A   Scattered Clouds
6:20 PM 48.2 °F - 37.4 °F 66% 29.92 in 6.2 mi SW 13.8 mph - N/A   Scattered Clouds
6:50 PM 48.2 °F - 37.4 °F 66% 29.92 in 6.2 mi SW 13.8 mph - N/A   Scattered Clouds
7:20 PM 50.0 °F - 39.2 °F 66% 29.92 in 6.2 mi SW 17.3 mph - N/A   Scattered Clouds
7:50 PM 50.0 °F - 39.2 °F 66% 29.92 in 6.2 mi SW 16.1 mph - N/A   Scattered Clouds
8:00 PM 49 °F - 38 °F 55% 29.92 in 6 mi SW 16.1 mph - -   Partly Cloudy
8:20 PM 50.0 °F - 39.2 °F 66% 29.89 in 6.2 mi SW 17.3 mph - N/A   Scattered Clouds
8:50 PM 48.2 °F - 39.2 °F 71% 29.89 in 6.2 mi SW 16.1 mph - N/A   Scattered Clouds
9:20 PM 48.2 °F - 39.2 °F 71% 29.92 in 6.2 mi SW 10.4 mph - N/A   Scattered Clouds
9:50 PM 48.2 °F - 39.2 °F 71% 29.92 in 6.2 mi SW 13.8 mph - N/A   Scattered Clouds
10:20 PM 48.2 °F - 39.2 °F 71% 29.92 in 6.2 mi SW 11.5 mph - N/A   Scattered Clouds
10:50 PM 48.2 °F - 39.2 °F 71% 29.92 in 6.2 mi WSW 9.2 mph - N/A   Scattered Clouds
11:20 PM 48.2 °F - 39.2 °F 71% 29.92 in 6.2 mi Variable 2.3 mph - N/A   Scattered Clouds
11:50 PM 46.4 °F 44.3 °F 39.2 °F 76% 29.92 in 6.2 mi North 4.6 mph - N/A   Scattered Clouds